Location: Newark
(6.9000°N, 10.0000°E)
Time: 11:31:53
(UTC+00:00)

Hubble Space Telescope - Pass Details

Date: 28 October 2019
Orbit: 536 x 540 km, 28.5° (Epoch: 20 November)

Event Time Altitude Azimuth Distance (km) Brightness Sun altitude
Exits shadow 03:16:17 11° 29° (NNE) 1,710 3.5 -27.7°
Drops below altitude 10° 03:16:25 10° 30° (NNE) 1,750 3.6 -27.7°
Sets 03:19:02 0° 44° (NE) 2,660 4.7 -27.0°
